User: anonymous   Login
Location: Newark
(23.5328°S, 46.7919°W)
Time: 23:17:59
(UTC+00:00)
Language:

Envisat - Orbit

View from above orbital plane
View from above orbital plane
View from above satellite
View from above satellite

Ground track
Ground track

The orbit data is extracted from the following two-line orbital elements,

1 27386U 02009A   21112.52484515  .00000053  00000-0  31053-4 0  9992
2 27386  98.1481 109.4418 0001372  86.7246  78.4180 14.38022113  3031
Epoch (UTC): 22 April 2021 12:35:46
Eccentricity: 0.0001372
inclination: 98.1481°
perigee height: 764 km
apogee height: 766 km
right ascension of ascending node: 109.4418°
argument of perigee: 86.7246°
revolutions per day: 14.38022113
mean anomaly at epoch: 78.4180°
orbit number at epoch: 303

The dashed part of the orbit path shows where the satellite is in the earth's shadow,  

DLR